Coal Valley, IL

11:06 AM CST on December 04, 2016 (GMT -0600)
Quad-City International

Weather History for KMLI - October, 2010

Change the Weather History Date:

Monday, October 18, 2010

  Actual Average Record
Temperature  
Mean Temperature 52 °F 53 °F  
Max Temperature 64 °F 63 °F 86 °F (1950)
Min Temperature 40 °F 42 °F 19 °F (1952)
Degree Days  
Heating Degree Days 13 13  
Month to date heating degree days 126 182  
Since 1 July heating degree days 175 286  
Cooling Degree Days 0 0  
Month to date cooling degree days 12 11  
Year to date cooling degree days 1285 1000  
Growing Degree Days 4 (Base 50)    
Moisture  
Dew Point 33 °F    
Average Humidity 50    
Maximum Humidity 70    
Minimum Humidity 29    
Precipitation  
Precipitation 0.00 in 0.10 in 2.35 in (1985)
Month to date precipitation 0.03 1.69  
Year to date precipitation 39.86 31.94  
Snow  
Snow 0.00 in 0.00 in - ()
Month to date snowfall 0.0 0.0  
Since 1 July snowfall 0.0 0.0  
Since 1 September snowfall 0.0 0.0  
Snow Depth 0.00 in    
Sea Level Pressure  
Sea Level Pressure 30.04 in    
Wind  
Wind Speed 4 mph (NE)    
Max Wind Speed 16 mph    
Max Gust Speed 20 mph    
Visibility 10 miles    
Events      
T = Trace of Precipitation, MM = Missing Value Source: NWS Daily Summary

Daily Weather History Graph

Daily Weather History Graph

Search for Another Location

Airport or City:

Trip Planner

Search our weather history database for the weather conditions in past years. The results will help you decide how hot, cold, wet, or windy it might be!

Date:

Astronomy

Oct. 18, 2010 Rise Set
Actual Time 7:17 AM CDT 6:16 PM CDT
Civil Twilight 6:49 AM CDT 6:44 PM CDT
Nautical Twilight 6:17 AM CDT 7:16 PM CDT
Astronomical Twilight 5:45 AM CDT 7:48 PM CDT
Moon 4:03 PM CDT (10/18) 3:03 AM CDT (10/18)
Length of Visible Light 11h 55m
Length of Day
10h 59m
Waxing Gibbous, 83% of the Moon is Illuminated
Oct 18
Waxing Gibbous
Oct 22
Full
Oct 30
Last Quarter
Nov 5
New
Nov 13
First Quarter

Hourly Weather History & Observations

Time (CDT) Temp. Dew Point Humidity Pressure Visibility Wind Dir Wind Speed Gust Speed Precip Events Conditions
12:52 AM 50.0 °F 37.0 °F 61% 30.04 in 10.0 mi Calm Calm - N/A   Overcast
1:52 AM 51.1 °F 39.0 °F 63% 30.04 in 10.0 mi Calm Calm - N/A   Overcast
2:52 AM 52.0 °F 35.1 °F 53% 30.04 in 10.0 mi ENE 3.5 mph - N/A   Overcast
3:52 AM 52.0 °F 36.0 °F 54% 30.04 in 10.0 mi Calm Calm - N/A   Overcast
4:52 AM 51.1 °F 35.1 °F 54% 30.04 in 10.0 mi ENE 3.5 mph - N/A   Mostly Cloudy
5:52 AM 51.1 °F 34.0 °F 52% 30.06 in 10.0 mi ENE 5.8 mph - N/A   Clear
6:52 AM 51.1 °F 34.0 °F 52% 30.06 in 10.0 mi ENE 6.9 mph - N/A   Partly Cloudy
7:52 AM 51.1 °F 34.0 °F 52% 30.08 in 10.0 mi NE 6.9 mph - N/A   Mostly Cloudy
8:52 AM 53.1 °F 33.1 °F 47% 30.09 in 10.0 mi ENE 10.4 mph - N/A   Partly Cloudy
9:52 AM 55.0 °F 33.1 °F 43% 30.08 in 10.0 mi East 13.8 mph - N/A   Clear
10:52 AM 55.9 °F 32.0 °F 40% 30.08 in 10.0 mi ENE 11.5 mph - N/A   Clear
11:52 AM 60.1 °F 34.0 °F 38% 30.06 in 10.0 mi ENE 8.1 mph - N/A   Clear
12:52 PM 62.1 °F 32.0 °F 32% 30.03 in 10.0 mi ESE 5.8 mph - N/A   Clear
1:52 PM 63.0 °F 33.1 °F 33% 30.02 in 10.0 mi Calm Calm - N/A   Clear
2:52 PM 62.1 °F 30.9 °F 31% 30.00 in 10.0 mi NNE 6.9 mph - N/A   Clear
3:52 PM 63.0 °F 30.0 °F 29% 29.99 in 10.0 mi NNE 5.8 mph - N/A   Clear
4:52 PM 61.0 °F 28.0 °F 29% 29.99 in 10.0 mi North 6.9 mph - N/A   Clear
5:52 PM 60.1 °F 30.9 °F 33% 29.99 in 10.0 mi NW 3.5 mph - N/A   Clear
6:52 PM 57.0 °F 30.0 °F 36% 30.01 in 10.0 mi NW 3.5 mph - N/A   Clear
7:52 PM 48.9 °F 33.1 °F 54% 30.02 in 9.0 mi Calm Calm - N/A   Clear
8:52 PM 46.0 °F 35.1 °F 66% 30.03 in 10.0 mi Calm Calm - N/A   Clear
9:52 PM 44.1 °F 34.0 °F 68% 30.04 in 10.0 mi Calm Calm - N/A   Clear
10:52 PM 46.0 °F 34.0 °F 63% 30.05 in 10.0 mi Calm Calm - N/A   Clear
11:52 PM 43.0 °F 34.0 °F 71% 30.04 in 10.0 mi Calm Calm - N/A   Clear